Regional Weather Roundup
Issued by NWS

Home | Current Version | Previous Version | Graphics & Text | Print | Product List | Glossary On
Versions: 1 2 3 4 5 6 7 8 9 10 11 12 13 14 15 16 17 18 19 20 21 22 23 24 25 26 27 28 29 30 31 32 33 34 35 36 37 38 39 40 41 42 43 44 45 46 47 48 49 50
000
ASUS43 KLMK 232102
RWRKY
KENTUCKY REGIONAL WEATHER ROUNDUP
NATIONAL WEATHER SERVICE LOUISVILLE KY
500 PM EDT TUE MAY 23 2017

NOTE "FAIR" INDICATES FEW OR NO CLOUDS BELOW 12,000 FEET
WITH NO SIGNIFICANT WEATHER AND/OR OBSTRUCTIONS TO VISIBILITY.

KYZ001>023-026-027-061>063-070>075-232200-
WESTERN AND SOUTH CENTRAL KENTUCKY

CITY           SKY/WX    TMP DP  RH WIND       PRES   REMARKS
PADUCAH        CLOUDY    77  47  34 VRB3      29.68F
HENDERSON      PTSUNNY   76  49  38 W13       29.68F
OWENSBORO      MOSUNNY   76  46  34 N3        29.68F
HOPKINSVILLE   CLOUDY    74  51  44 W8        29.68F
BOWLING GREEN  MOSUNNY   76  55  48 W8        29.68F
GLASGOW        NOT AVBL
$$

KYZ024-025-028>034-038-045-046-053-232200-
NORTH CENTRAL KENTUCKY

CITY           SKY/WX    TMP DP  RH WIND       PRES   REMARKS
LOUISVILLE/SDF CLOUDY    76  57  51 S6        29.67F
LOUISVILLE/LOU CLOUDY    76  55  48 S3        29.67F
FORT KNOX      PTSUNNY   75  54  48 SW3       29.66F
$$

KYZ035>037-039>044-047>052-055>060-089>105-232200-
NORTHEAST KENTUCKY

CITY           SKY/WX    TMP DP  RH WIND       PRES   REMARKS
LEXINGTON      PTSUNNY   73  59  61 S5        29.69F
COVINGTON      CLOUDY    73  50  44 S5        29.69F
FRANKFORT      PTSUNNY   75  57  53 CALM      29.67F
$$

KYZ054-064>069-076>088-106>120-232200-
SOUTHEAST KENTUCKY

CITY           SKY/WX    TMP DP  RH WIND       PRES   REMARKS
JACKSON        CLOUDY    65  62  90 SE3       29.71F
LONDON         LGT RAIN  68  58  70 SE5       29.70F
SOMERSET       CLOUDY    68  55  64 CALM      29.71F
MIDDLESBORO    CLOUDY    68  60  76 W3        29.70F
MONTICELLO     CLOUDY    68  60  75 E9        29.72S
$$




USA.gov is the U.S. government's official web portal to all federal, state and local government web resources and services.